Torna al catalogo

CZ-6A DEB

AttivoSSO
NORAD 54448·DEBRIS·🇨🇳 China

Lanciato Nov 11, 2022 da Taiyuan Satellite Launch Center

Loading…

Prossimi Passaggi (prossime 24 ore)

TLE

AggiornatoSource: Space-Track

Epoca: Sep 14, 2026, 10:56 UTC

1 54448U 22151FY  26257.45577164  .00000283  00000-0  15556-3 0  9995
2 54448  98.7653 266.0893 0026336  86.8307 273.5881 14.19157195198512

Traccia CZ-6A DEB in tempo reale con AllMySat

Download on the App Store